TimeCST,TemperatureF,Dew PointF,Humidity,Sea Level PressureIn,VisibilityMPH,Wind Direction,Wind SpeedMPH,Gust SpeedMPH,PrecipitationIn,Events,Conditions,WindDirDegrees,DateUTC
12:33 AM,19.4,17.6,93,30.17,1.8,South,18.4,-,0.00,Snow,Light Snow,190,2013-02-02 06:33:00
12:42 AM,19.4,17.6,93,30.17,1.5,SSW,18.4,-,0.00,Snow,Light Snow,200,2013-02-02 06:42:00
12:53 AM,19.9,17.1,89,30.21,1.5,SSW,12.7,-,0.00,Snow,Light Snow,200,2013-02-02 06:53:00
1:53 AM,21.0,18.0,88,30.22,1.0,SSW,8.1,-,0.01,Snow,Light Snow,210,2013-02-02 07:53:00
2:06 AM,21.2,19.4,93,30.18,0.8,SSW,6.9,-,0.01,Snow,Light Snow,200,2013-02-02 08:06:00
2:20 AM,21.2,19.4,93,30.17,1.0,South,8.1,-,0.02,Snow,Light Snow,190,2013-02-02 08:20:00
2:31 AM,21.2,19.4,93,30.17,0.8,South,9.2,-,0.02,Snow,Light Snow,190,2013-02-02 08:31:00
2:38 AM,21.2,19.4,93,30.16,1.2,South,9.2,-,0.03,Snow,Light Snow,190,2013-02-02 08:38:00
2:50 AM,21.2,19.4,93,30.15,2.5,South,10.4,-,0.03,Snow,Light Snow,190,2013-02-02 08:50:00
3:05 AM,21.2,19.4,93,30.14,2.5,South,11.5,-,0.00,Snow,Light Snow,180,2013-02-02 09:05:00
3:13 AM,21.2,19.4,93,30.14,5.0,South,11.5,-,0.00,Snow,Light Snow,190,2013-02-02 09:13:00
3:53 AM,21.0,19.0,92,30.16,10.0,South,11.5,-,0.00,,Mostly Cloudy,190,2013-02-02 09:53:00
4:53 AM,21.9,19.0,89,30.12,10.0,South,13.8,-,N/A,,Overcast,180,2013-02-02 10:53:00
5:53 AM,21.9,17.1,82,30.10,10.0,South,15.0,-,N/A,,Overcast,190,2013-02-02 11:53:00
6:53 AM,23.0,16.0,74,30.08,10.0,SSW,12.7,-,N/A,,Overcast,200,2013-02-02 12:53:00
7:53 AM,24.1,17.1,75,30.08,9.0,SSW,11.5,-,N/A,,Overcast,210,2013-02-02 13:53:00
8:11 AM,24.8,17.6,74,30.05,1.8,SW,15.0,-,0.00,Snow,Light Snow,220,2013-02-02 14:11:00
8:53 AM,25.0,21.0,85,30.07,6.0,SW,11.5,-,0.00,Snow,Light Snow,230,2013-02-02 14:53:00
9:53 AM,27.0,23.0,85,30.06,10.0,WSW,12.7,-,0.00,,Overcast,250,2013-02-02 15:53:00
10:16 AM,28.4,21.2,74,30.03,10.0,West,15.0,-,N/A,,Overcast,260,2013-02-02 16:16:00
10:53 AM,28.9,21.9,75,30.06,10.0,West,16.1,-,N/A,,Overcast,270,2013-02-02 16:53:00
11:53 AM,28.9,23.0,78,30.05,10.0,WNW,15.0,-,N/A,,Overcast,300,2013-02-02 17:53:00
12:53 PM,28.9,23.0,78,30.05,10.0,WNW,15.0,-,N/A,,Overcast,300,2013-02-02 18:53:00
1:53 PM,28.0,24.1,85,30.05,4.0,WNW,13.8,-,N/A,,Overcast,300,2013-02-02 19:53:00
2:53 PM,28.0,24.1,85,30.06,5.0,WNW,16.1,-,N/A,,Overcast,290,2013-02-02 20:53:00
3:53 PM,23.0,19.0,85,30.09,5.0,NW,17.3,-,0.00,,Overcast,320,2013-02-02 21:53:00
4:22 PM,23.0,17.6,80,30.07,3.0,NNW,17.3,-,N/A,,Overcast,330,2013-02-02 22:22:00
4:53 PM,21.9,17.1,82,30.11,3.0,NW,13.8,-,0.00,,Haze,320,2013-02-02 22:53:00
5:53 PM,19.9,14.0,78,30.13,3.0,NW,17.3,-,N/A,,Overcast,310,2013-02-02 23:53:00
6:53 PM,18.0,10.9,74,30.15,10.0,NW,11.5,-,N/A,,Overcast,310,2013-02-03 00:53:00
7:18 PM,17.6,10.4,73,30.10,10.0,NW,12.7,-,N/A,,Overcast,320,2013-02-03 01:18:00
7:53 PM,17.1,10.0,74,30.13,10.0,NW,9.2,-,N/A,,Mostly Cloudy,320,2013-02-03 01:53:00
8:53 PM,16.0,10.0,77,30.12,10.0,NNW,5.8,-,N/A,,Mostly Cloudy,330,2013-02-03 02:53:00
9:53 PM,16.0,10.0,77,30.12,10.0,NNW,3.5,-,N/A,,Overcast,330,2013-02-03 03:53:00
10:53 PM,14.0,9.0,80,30.11,10.0,Calm,Calm,-,N/A,,Clear,0,2013-02-03 04:53:00
11:53 PM,15.1,10.9,84,30.08,10.0,Calm,Calm,-,N/A,,Overcast,0,2013-02-03 05:53:00